,,,PA_Meas_PMT16A,,PR_Meas_QMR101_102,,RH_Meas_QMH101,,SR_Meas_QMS101,,TA_Meas_QMH101,,GenWind,,GenWind,
date,time,status,PA,status,PR,status,RH,status,SR,status,TA,status,DirAvg,status,SpdAvg,
2009-04-08, 00:00:04,VALID,1000.14,VALID,0,VALID,91.2884,VALID,0,VALID,23.2329,VALID,122,VALID,1.12422,
2009-04-08, 00:01:04,VALID,1000.13,VALID,0,VALID,91.3952,VALID,0,VALID,23.1939,VALID,125,VALID,0.934766,
2009-04-08, 00:02:04,VALID,1000.14,VALID,0,VALID,91.5783,VALID,0,VALID,23.1957,VALID,121,VALID,0.740234,
2009-04-08, 00:03:04,VALID,1000.11,VALID,0,VALID,91.7385,VALID,0,VALID,23.1566,VALID,117,VALID,0.616016,
2009-04-08, 00:04:04,VALID,1000.13,VALID,0,VALID,91.8835,VALID,0,VALID,23.1176,VALID,117,VALID,0.379297,
2009-04-08, 00:05:04,VALID,1000.08,VALID,0,VALID,92.0437,VALID,0,VALID,23.0769,VALID,135,VALID,0.655859,
2009-04-08, 00:06:04,VALID,1000.04,VALID,0,VALID,92.1506,VALID,0,VALID,23.0591,VALID,136,VALID,0.628516,
2009-04-08, 00:07:04,VALID,999.981,VALID,0,VALID,92.3489,VALID,0,VALID,23.0396,VALID,145,VALID,0.757813,
2009-04-08, 00:08:04,VALID,999.955,VALID,0,VALID,92.3871,VALID,0,VALID,23.0396,VALID,142,VALID,0.0140625,
2009-04-08, 00:09:04,VALID,999.924,VALID,0,VALID,92.3718,VALID,0,VALID,23.0201,VALID,142,VALID,0.183594,
2009-04-08, 00:10:04,VALID,999.89,VALID,0,VALID,92.326,VALID,0,VALID,23.0006,VALID,149,VALID,0.0695312,
2009-04-08, 00:11:04,VALID,999.917,VALID,0,VALID,92.4786,VALID,0,VALID,22.9811,VALID,107,VALID,0.347656,
2009-04-08, 00:12:04,VALID,999.889,VALID,0,VALID,92.3489,VALID,0,VALID,22.9615,VALID,106,VALID,0.300781,
2009-04-08, 00:13:04,VALID,999.881,VALID,0,VALID,92.3108,VALID,0,VALID,22.9013,VALID,101,VALID,0.433594,
2009-04-08, 00:14:04,VALID,999.853,VALID,0,VALID,92.532,VALID,0,VALID,22.8835,VALID,53,VALID,0.592578,
2009-04-08, 00:15:04,VALID,999.882,VALID,0,VALID,92.6007,VALID,0,VALID,22.864,VALID,42,VALID,0.646875,
2009-04-08, 00:16:04,VALID,999.869,VALID,0,VALID,92.7533,VALID,0,VALID,22.864,VALID,42,VALID,0.577344,
2009-04-08, 00:17:04,VALID,999.857,VALID,0,VALID,92.8601,VALID,0,VALID,22.8445,VALID,42,VALID,0.560547,
2009-04-08, 00:18:04,VALID,999.832,VALID,0,VALID,92.8448,VALID,0,VALID,22.8037,VALID,41,VALID,0.599609,
2009-04-08, 00:19:04,VALID,999.848,VALID,0,VALID,93.0432,VALID,0,VALID,22.8055,VALID,41,VALID,0.517187,
2009-04-08, 00:20:04,VALID,999.799,VALID,0,VALID,93.15,VALID,0,VALID,22.8055,VALID,41,VALID,0.396484,
2009-04-08, 00:21:04,VALID,999.799,VALID,0,VALID,93.0585,VALID,0,VALID,22.825,VALID,41,VALID,0.3125,
2009-04-08, 00:22:04,VALID,999.778,VALID,0,VALID,93.1424,VALID,0,VALID,22.786,VALID,41,VALID,0.125781,
2009-04-08, 00:23:04,VALID,999.782,VALID,0,VALID,93.2111,VALID,0,VALID,22.7842,VALID,41,VALID,0.252344,
2009-04-08, 00:24:04,VALID,999.806,VALID,0,VALID,93.2645,VALID,0,VALID,22.8037,VALID,41,VALID,0.26875,
2009-04-08, 00:25:04,VALID,999.792,VALID,0,VALID,93.2263,VALID,0,VALID,22.825,VALID,41,VALID,0,
2009-04-08, 00:26:04,VALID,999.762,VALID,0,VALID,93.2187,VALID,0,VALID,22.8037,VALID,41,VALID,0.339453,
2009-04-08, 00:27:04,VALID,999.774,VALID,0,VALID,93.1271,VALID,0,VALID,22.8055,VALID,42,VALID,0.280078,
2009-04-08, 00:28:04,VALID,999.757,VALID,0,VALID,93.0203,VALID,0,VALID,22.8055,VALID,42,VALID,0.199219,
2009-04-08, 00:29:04,VALID,999.702,VALID,0,VALID,92.9593,VALID,0,VALID,22.7647,VALID,42,VALID,0,
2009-04-08, 00:30:04,VALID,999.716,VALID,0,VALID,93.0585,VALID,0,VALID,22.7664,VALID,42,VALID,0.207422,
2009-04-08, 00:31:04,VALID,999.713,VALID,0,VALID,93.1653,VALID,0,VALID,22.7452,VALID,42,VALID,0.224219,
2009-04-08, 00:32:04,VALID,999.729,VALID,0,VALID,93.2416,VALID,0,VALID,22.786,VALID,42,VALID,0.103906,
2009-04-08, 00:33:04,VALID,999.702,VALID,0,VALID,93.2645,VALID,0,VALID,22.786,VALID,42,VALID,0.00195313,
2009-04-08, 00:34:04,VALID,999.711,VALID,0,VALID,93.2645,VALID,0,VALID,22.786,VALID,42,VALID,0.125781,
2009-04-08, 00:35:04,VALID,999.714,VALID,0,VALID,93.356,VALID,0,VALID,22.786,VALID,42,VALID,0.219922,
2009-04-08, 00:36:04,VALID,999.676,VALID,0,VALID,93.3484,VALID,0,VALID,22.7647,VALID,42,VALID,0.275781,
2009-04-08, 00:37:04,VALID,999.657,VALID,0,VALID,93.3408,VALID,0,VALID,22.8055,VALID,42,VALID,0.468359,
2009-04-08, 00:38:04,VALID,999.654,VALID,0,VALID,93.2263,VALID,0,VALID,22.8445,VALID,51,VALID,0.509766,
2009-04-08, 00:39:04,VALID,999.675,VALID,0,VALID,93.0508,VALID,0,VALID,22.8835,VALID,52,VALID,0.569531,
2009-04-08, 00:40:04,VALID,999.597,VALID,0,VALID,92.8677,VALID,0,VALID,22.9013,VALID,52,VALID,0.668359,
2009-04-08, 00:41:04,VALID,999.591,VALID,0,VALID,92.7228,VALID,0,VALID,22.9208,VALID,51,VALID,0.669141,
2009-04-08, 00:42:04,VALID,999.585,VALID,0,VALID,92.3794,VALID,0,VALID,22.9013,VALID,43,VALID,0.547266,
2009-04-08, 00:43:04,VALID,999.574,VALID,0,VALID,92.4557,VALID,0,VALID,22.903,VALID,43,VALID,0.408984,
2009-04-08, 00:44:04,VALID,999.575,VALID,0,VALID,92.4481,VALID,0,VALID,22.8427,VALID,43,VALID,0.265234,
2009-04-08, 00:45:04,VALID,999.563,VALID,0,VALID,92.5168,VALID,0,VALID,22.8445,VALID,43,VALID,0,
2009-04-08, 00:46:04,VALID,999.578,VALID,0,VALID,92.6465,VALID,0.112286,VALID,22.7842,VALID,43,VALID,0,
2009-04-08, 00:47:04,VALID,999.552,VALID,0,VALID,92.6999,VALID,0,VALID,22.7452,VALID,43,VALID,0,
2009-04-08, 00:48:04,VALID,999.572,VALID,0,VALID,92.7914,VALID,0,VALID,22.7257,VALID,43,VALID,0,
2009-04-08, 00:49:04,VALID,999.557,VALID,0,VALID,93.028,VALID,0,VALID,22.7469,VALID,43,VALID,0,
2009-04-08, 00:50:04,VALID,999.538,VALID,0,VALID,93.1348,VALID,0,VALID,22.7257,VALID,43,VALID,0,
2009-04-08, 00:51:04,VALID,999.511,VALID,0,VALID,93.2492,VALID,0,VALID,22.7062,VALID,43,VALID,0,
2009-04-08, 00:52:04,VALID,999.497,VALID,0,VALID,93.2874,VALID,0,VALID,22.7079,VALID,43,VALID,0,
2009-04-08, 00:53:04,VALID,999.462,VALID,0,VALID,93.2874,VALID,0.112286,VALID,22.6867,VALID,43,VALID,0,
2009-04-08, 00:54:04,VALID,999.494,VALID,0,VALID,93.3026,VALID,0,VALID,22.6672,VALID,43,VALID,0,
2009-04-08, 00:55:04,VALID,999.454,VALID,0,VALID,93.4705,VALID,0,VALID,22.6672,VALID,174,VALID,0.366016,
2009-04-08, 00:56:04,VALID,999.412,VALID,0,VALID,93.5468,VALID,0,VALID,22.7079,VALID,174,VALID,0.33125,
2009-04-08, 00:57:04,VALID,999.405,VALID,0,VALID,93.5544,VALID,0,VALID,22.7079,VALID,174,VALID,0.602344,
2009-04-08, 00:58:04,VALID,999.388,VALID,0,VALID,93.501,VALID,0.112286,VALID,22.7062,VALID,169,VALID,0.754297,
2009-04-08, 00:59:04,VALID,999.337,VALID,0,VALID,93.3789,VALID,0,VALID,22.7469,VALID,168,VALID,0.589453,
2009-04-08, 01:00:04,VALID,999.33,VALID,0,VALID,93.2797,VALID,0.112286,VALID,22.7452,VALID,168,VALID,0.776172,
2009-04-08, 01:01:04,VALID,999.295,VALID,0,VALID,93.1577,VALID,0,VALID,22.7842,VALID,158,VALID,0.712891,
2009-04-08, 01:02:04,VALID,999.306,VALID,0,VALID,92.9898,VALID,0,VALID,22.8037,VALID,155,VALID,0.621094,
2009-04-08, 01:03:04,VALID,999.245,VALID,0,VALID,92.8525,VALID,0,VALID,22.825,VALID,156,VALID,0.0132813,
2009-04-08, 01:04:04,VALID,999.217,VALID,0,VALID,92.7304,VALID,0,VALID,22.8232,VALID,156,VALID,0.258203,
2009-04-08, 01:05:04,VALID,999.219,VALID,0,VALID,92.6388,VALID,0,VALID,22.8232,VALID,156,VALID,0.0300781,
2009-04-08, 01:06:04,VALID,999.192,VALID,0,VALID,92.5854,VALID,0,VALID,22.8232,VALID,156,VALID,0,
2009-04-08, 01:07:04,VALID,999.212,VALID,0,VALID,92.6083,VALID,0,VALID,22.8232,VALID,156,VALID,0.186328,
2009-04-08, 01:08:04,VALID,999.212,VALID,0,VALID,92.6312,VALID,0,VALID,22.8232,VALID,163,VALID,0.183984,
2009-04-08, 01:09:04,VALID,999.205,VALID,0,VALID,92.6388,VALID,0,VALID,22.8427,VALID,236,VALID,0.298438,
2009-04-08, 01:10:04,VALID,999.197,VALID,0,VALID,92.5397,VALID,0,VALID,22.8427,VALID,242,VALID,0.378125,
2009-04-08, 01:11:04,VALID,999.21,VALID,0,VALID,92.4634,VALID,0,VALID,22.8445,VALID,270,VALID,0.636719,
2009-04-08, 01:12:04,VALID,999.24,VALID,0,VALID,92.4481,VALID,0.112286,VALID,22.8037,VALID,284,VALID,0.624219,
2009-04-08, 01:13:04,VALID,999.247,VALID,0,VALID,92.5091,VALID,0,VALID,22.7647,VALID,285,VALID,0.409766,
2009-04-08, 01:14:04,VALID,999.258,VALID,0,VALID,92.616,VALID,0,VALID,22.7452,VALID,285,VALID,0.021875,
2009-04-08, 01:15:04,VALID,999.237,VALID,0,VALID,92.6312,VALID,0,VALID,22.7257,VALID,285,VALID,0.129688,
2009-04-08, 01:16:04,VALID,999.224,VALID,0,VALID,92.6312,VALID,0,VALID,22.7274,VALID,285,VALID,0.119141,
2009-04-08, 01:17:04,VALID,999.197,VALID,0,VALID,92.7457,VALID,0,VALID,22.6867,VALID,285,VALID,0.188281,
2009-04-08, 01:18:04,VALID,999.166,VALID,0,VALID,92.8143,VALID,0,VALID,22.6867,VALID,285,VALID,0.00117188,
2009-04-08, 01:19:04,VALID,999.17,VALID,0,VALID,92.8448,VALID,0,VALID,22.7079,VALID,184,VALID,0.50625,
2009-04-08, 01:20:04,VALID,999.169,VALID,0,VALID,92.8754,VALID,0,VALID,22.6689,VALID,173,VALID,0.919141,
2009-04-08, 01:21:04,VALID,999.166,VALID,0,VALID,93.089,VALID,0,VALID,22.6884,VALID,147,VALID,0.714844,
2009-04-08, 01:22:04,VALID,999.158,VALID,0,VALID,93.0051,VALID,0,VALID,22.7079,VALID,147,VALID,0.570703,
2009-04-08, 01:23:04,VALID,999.185,VALID,0,VALID,93.028,VALID,0,VALID,22.7274,VALID,139,VALID,0.778906,
2009-04-08, 01:24:04,VALID,999.163,VALID,0,VALID,92.9669,VALID,0,VALID,22.7664,VALID,133,VALID,0.958203,
2009-04-08, 01:25:04,VALID,999.152,VALID,0,VALID,92.6999,VALID,0,VALID,22.8055,VALID,120,VALID,0.910937,
2009-04-08, 01:26:04,VALID,999.154,VALID,0,VALID,92.532,VALID,0,VALID,22.825,VALID,119,VALID,0.769531,
2009-04-08, 01:27:04,VALID,999.14,VALID,0,VALID,92.4328,VALID,0,VALID,22.7842,VALID,119,VALID,0.638672,
2009-04-08, 01:28:04,VALID,999.111,VALID,0,VALID,92.41,VALID,0,VALID,22.8055,VALID,134,VALID,0.574609,
2009-04-08, 01:29:04,VALID,999.129,VALID,0,VALID,92.3718,VALID,0,VALID,22.8055,VALID,130,VALID,0.388281,
2009-04-08, 01:30:04,VALID,999.127,VALID,0,VALID,92.4176,VALID,0,VALID,22.786,VALID,137,VALID,0.518359,
2009-04-08, 01:31:04,VALID,999.169,VALID,0,VALID,92.41,VALID,0.112286,VALID,22.7842,VALID,137,VALID,0.264062,
2009-04-08, 01:32:04,VALID,999.154,VALID,0,VALID,92.3489,VALID,0,VALID,22.786,VALID,137,VALID,0.0578125,
2009-04-08, 01:33:04,VALID,999.166,VALID,0,VALID,92.3794,VALID,0,VALID,22.7647,VALID,137,VALID,0.158594,
2009-04-08, 01:34:04,VALID,999.178,VALID,0,VALID,92.41,VALID,0,VALID,22.786,VALID,137,VALID,0.120312,
2009-04-08, 01:35:04,VALID,999.176,VALID,0,VALID,92.3718,VALID,0,VALID,22.786,VALID,137,VALID,0.335156,
2009-04-08, 01:36:04,VALID,999.17,VALID,0,VALID,92.471,VALID,0,VALID,22.7664,VALID,137,VALID,0.187109,
2009-04-08, 01:37:04,VALID,999.178,VALID,0,VALID,92.4328,VALID,0,VALID,22.7877,VALID,137,VALID,0.383594,
2009-04-08, 01:38:04,VALID,999.168,VALID,0,VALID,92.4786,VALID,0,VALID,22.7664,VALID,127,VALID,0.378125,
2009-04-08, 01:39:04,VALID,999.137,VALID,0,VALID,92.4863,VALID,0,VALID,22.7664,VALID,127,VALID,0.292188,
2009-04-08, 01:40:04,VALID,999.115,VALID,0,VALID,92.4863,VALID,0,VALID,22.7664,VALID,91,VALID,0.482812,
2009-04-08, 01:41:04,VALID,999.106,VALID,0,VALID,92.4481,VALID,0,VALID,22.7664,VALID,78,VALID,0.388281,
2009-04-08, 01:42:04,VALID,999.104,VALID,0,VALID,92.3566,VALID,0,VALID,22.786,VALID,78,VALID,0.26875,
2009-04-08, 01:43:04,VALID,999.114,VALID,0,VALID,92.2879,VALID,0,VALID,22.7664,VALID,78,VALID,0.38125,
2009-04-08, 01:44:04,VALID,999.128,VALID,0,VALID,92.265,VALID,0,VALID,22.7452,VALID,78,VALID,0.273438,
2009-04-08, 01:45:04,VALID,999.124,VALID,0,VALID,92.2726,VALID,0,VALID,22.7274,VALID,78,VALID,0,
2009-04-08, 01:46:04,VALID,999.111,VALID,0,VALID,92.3489,VALID,0,VALID,22.6689,VALID,78,VALID,0.03125,
2009-04-08, 01:47:04,VALID,999.114,VALID,0,VALID,92.616,VALID,0,VALID,22.6689,VALID,78,VALID,0.228516,
2009-04-08, 01:48:04,VALID,999.119,VALID,0,VALID,92.9288,VALID,0,VALID,22.6884,VALID,129,VALID,0.398047,
2009-04-08, 01:49:04,VALID,999.11,VALID,0,VALID,92.9898,VALID,0,VALID,22.7274,VALID,155,VALID,0.438672,
2009-04-08, 01:50:04,VALID,999.129,VALID,0,VALID,93.0814,VALID,0,VALID,22.7257,VALID,156,VALID,0.490625,
2009-04-08, 01:51:04,VALID,999.157,VALID,0,VALID,92.9974,VALID,0,VALID,22.7452,VALID,155,VALID,0.590625,
2009-04-08, 01:52:04,VALID,999.17,VALID,0,VALID,92.9364,VALID,0,VALID,22.786,VALID,153,VALID,0.363281,
2009-04-08, 01:53:04,VALID,999.165,VALID,0,VALID,92.7762,VALID,0,VALID,22.786,VALID,153,VALID,0.331641,
2009-04-08, 01:54:04,VALID,999.165,VALID,0,VALID,92.7151,VALID,0,VALID,22.786,VALID,153,VALID,0.307031,
2009-04-08, 01:55:04,VALID,999.154,VALID,0,VALID,92.6617,VALID,0,VALID,22.786,VALID,153,VALID,0.314453,
2009-04-08, 01:56:04,VALID,999.143,VALID,0,VALID,92.5702,VALID,0,VALID,22.786,VALID,153,VALID,0.309375,
2009-04-08, 01:57:04,VALID,999.146,VALID,0,VALID,92.1506,VALID,0,VALID,22.7469,VALID,55,VALID,0.585156,
2009-04-08, 01:58:04,VALID,999.144,VALID,0,VALID,92.4023,VALID,0,VALID,22.7274,VALID,55,VALID,0.511719,
2009-04-08, 01:59:04,VALID,999.193,VALID,0,VALID,92.7075,VALID,0,VALID,22.7079,VALID,55,VALID,0.664453,
2009-04-08, 02:00:04,VALID,999.144,VALID,0,VALID,92.6999,VALID,0,VALID,22.7062,VALID,108,VALID,0.612109,
2009-04-08, 02:01:04,VALID,999.146,VALID,0,VALID,92.4863,VALID,0,VALID,22.7274,VALID,109,VALID,0.303125,
2009-04-08, 02:02:04,VALID,999.137,VALID,0,VALID,92.5473,VALID,0,VALID,22.7469,VALID,129,VALID,0.719141,
2009-04-08, 02:03:04,VALID,999.124,VALID,0,VALID,92.3871,VALID,0,VALID,22.7469,VALID,129,VALID,0,
2009-04-08, 02:04:04,VALID,999.138,VALID,0,VALID,92.2497,VALID,0,VALID,22.7469,VALID,129,VALID,0,
2009-04-08, 02:05:04,VALID,999.152,VALID,0,VALID,92.1658,VALID,0,VALID,22.7062,VALID,129,VALID,0.219141,
2009-04-08, 02:06:04,VALID,999.117,VALID,0,VALID,92.204,VALID,0,VALID,22.7079,VALID,129,VALID,0.271094,
2009-04-08, 02:07:04,VALID,999.123,VALID,0,VALID,92.265,VALID,0,VALID,22.6689,VALID,129,VALID,0.295312,
2009-04-08, 02:08:04,VALID,999.076,VALID,0,VALID,92.471,VALID,0,VALID,22.6282,VALID,129,VALID,0.146484,
2009-04-08, 02:09:04,VALID,999.032,VALID,0,VALID,92.6312,VALID,0,VALID,22.6689,VALID,129,VALID,0.00507812,
2009-04-08, 02:10:04,VALID,999.047,VALID,0,VALID,92.7151,VALID,0,VALID,22.6494,VALID,129,VALID,0.269531,
2009-04-08, 02:11:04,VALID,999.023,VALID,0,VALID,92.7533,VALID,0,VALID,22.6494,VALID,129,VALID,0.217578,
2009-04-08, 02:12:04,VALID,999.03,VALID,0,VALID,92.7533,VALID,0,VALID,22.6477,VALID,129,VALID,0.141406,
2009-04-08, 02:13:04,VALID,999.022,VALID,0,VALID,92.6999,VALID,0,VALID,22.6689,VALID,129,VALID,0,
2009-04-08, 02:14:04,VALID,999.014,VALID,0,VALID,92.6999,VALID,0,VALID,22.6689,VALID,129,VALID,0,
2009-04-08, 02:15:04,VALID,999.009,VALID,0,VALID,92.7228,VALID,0,VALID,22.6884,VALID,129,VALID,0.105078,
2009-04-08, 02:16:04,VALID,999.014,VALID,0,VALID,92.7685,VALID,0,VALID,22.6689,VALID,129,VALID,0.391016,
2009-04-08, 02:17:04,VALID,999.017,VALID,0,VALID,92.8296,VALID,0,VALID,22.6884,VALID,129,VALID,0.426953,
2009-04-08, 02:18:04,VALID,999.019,VALID,0,VALID,92.5549,VALID,0,VALID,22.6884,VALID,90,VALID,0.572656,
2009-04-08, 02:19:04,VALID,999.004,VALID,0,VALID,92.265,VALID,0,VALID,22.6299,VALID,52,VALID,0.574219,
2009-04-08, 02:20:04,VALID,998.983,VALID,0,VALID,92.4786,VALID,0,VALID,22.5909,VALID,52,VALID,0.526563,
2009-04-08, 02:21:04,VALID,998.965,VALID,0,VALID,92.6694,VALID,0,VALID,22.5519,VALID,61,VALID,0.582422,
2009-04-08, 02:22:04,VALID,998.938,VALID,0,VALID,93.1653,VALID,0,VALID,22.5306,VALID,88,VALID,0.750391,
2009-04-08, 02:23:04,VALID,998.951,VALID,0,VALID,93.0203,VALID,0,VALID,22.5519,VALID,96,VALID,0.760547,
2009-04-08, 02:24:04,VALID,998.955,VALID,0,VALID,93.0966,VALID,0,VALID,22.5128,VALID,107,VALID,0.876562,
2009-04-08, 02:25:04,VALID,998.935,VALID,0,VALID,93.2568,VALID,0,VALID,22.4933,VALID,119,VALID,0.957812,
2009-04-08, 02:26:04,VALID,998.938,VALID,0,VALID,93.4171,VALID,0,VALID,22.4933,VALID,125,VALID,0.917188,
2009-04-08, 02:27:04,VALID,998.922,VALID,0,VALID,93.6688,VALID,0,VALID,22.5128,VALID,127,VALID,0.969922,
2009-04-08, 02:28:04,VALID,998.989,VALID,0,VALID,93.6765,VALID,0,VALID,22.5519,VALID,127,VALID,0.855078,
2009-04-08, 02:29:04,VALID,998.97,VALID,0,VALID,93.7223,VALID,0,VALID,22.5519,VALID,128,VALID,0.79375,
2009-04-08, 02:30:04,VALID,998.989,VALID,0,VALID,93.6765,VALID,0,VALID,22.5714,VALID,136,VALID,0.735547,
2009-04-08, 02:31:04,VALID,998.953,VALID,0,VALID,93.6994,VALID,0,VALID,22.5501,VALID,142,VALID,0.860937,
2009-04-08, 02:32:04,VALID,998.932,VALID,0,VALID,93.7833,VALID,0,VALID,22.5909,VALID,150,VALID,0.846094,
2009-04-08, 02:33:04,VALID,998.903,VALID,0,VALID,93.6994,VALID,0,VALID,22.5909,VALID,147,VALID,0.681641,
2009-04-08, 02:34:04,VALID,998.856,VALID,0,VALID,93.6536,VALID,0,VALID,22.5909,VALID,147,VALID,0.616797,
2009-04-08, 02:35:04,VALID,998.857,VALID,0,VALID,93.6307,VALID,0,VALID,22.5909,VALID,147,VALID,0.587109,
2009-04-08, 02:36:04,VALID,998.814,VALID,0,VALID,93.646,VALID,0,VALID,22.5892,VALID,141,VALID,0.434766,
2009-04-08, 02:37:04,VALID,998.816,VALID,0,VALID,93.6307,VALID,0,VALID,22.6104,VALID,124,VALID,0.846875,
2009-04-08, 02:38:04,VALID,998.804,VALID,0,VALID,93.4857,VALID,0,VALID,22.6104,VALID,114,VALID,0.546094,
2009-04-08, 02:39:04,VALID,998.771,VALID,0,VALID,93.3713,VALID,0,VALID,22.6104,VALID,97,VALID,0.588672,
2009-04-08, 02:40:04,VALID,998.796,VALID,0,VALID,92.9288,VALID,0,VALID,22.5714,VALID,47,VALID,0.598828,
2009-04-08, 02:41:04,VALID,998.783,VALID,0,VALID,92.8677,VALID,0,VALID,22.4933,VALID,35,VALID,0.507031,
2009-04-08, 02:42:04,VALID,998.802,VALID,0,VALID,92.9745,VALID,0,VALID,22.4543,VALID,35,VALID,0.0644531,
2009-04-08, 02:43:04,VALID,998.781,VALID,0,VALID,93.3103,VALID,0,VALID,22.4153,VALID,105,VALID,0.350391,
2009-04-08, 02:44:04,VALID,998.762,VALID,0,VALID,93.3637,VALID,0,VALID,22.4153,VALID,116,VALID,0.410156,
2009-04-08, 02:45:04,VALID,998.741,VALID,0,VALID,93.501,VALID,0,VALID,22.4153,VALID,153,VALID,0.696094,
2009-04-08, 02:46:04,VALID,998.727,VALID,0,VALID,93.7451,VALID,0,VALID,22.456,VALID,153,VALID,0.536719,
2009-04-08, 02:47:04,VALID,998.731,VALID,0,VALID,93.8367,VALID,0,VALID,22.4543,VALID,153,VALID,0.369141,
2009-04-08, 02:48:04,VALID,998.758,VALID,0,VALID,93.8367,VALID,0,VALID,22.4543,VALID,153,VALID,0.257813,
2009-04-08, 02:49:04,VALID,998.766,VALID,0,VALID,93.9435,VALID,0,VALID,22.4738,VALID,98,VALID,0.476953,
2009-04-08, 02:50:04,VALID,998.786,VALID,0,VALID,93.8901,VALID,0,VALID,22.4933,VALID,98,VALID,0.441797,
2009-04-08, 02:51:04,VALID,998.806,VALID,0,VALID,93.8138,VALID,0,VALID,22.4933,VALID,98,VALID,0.274609,
2009-04-08, 02:52:04,VALID,998.834,VALID,0,VALID,93.8443,VALID,0,VALID,22.5128,VALID,60,VALID,0.595703,
2009-04-08, 02:53:04,VALID,998.863,VALID,0,VALID,93.9054,VALID,0,VALID,22.5128,VALID,21,VALID,0.827734,
2009-04-08, 02:54:04,VALID,998.873,VALID,0,VALID,93.913,VALID,0,VALID,22.5519,VALID,19,VALID,0.594141,
2009-04-08, 02:55:04,VALID,998.84,VALID,0,VALID,93.8443,VALID,0,VALID,22.5519,VALID,3,VALID,0.736328,
2009-04-08, 02:56:04,VALID,998.825,VALID,0,VALID,93.8367,VALID,0,VALID,22.5519,VALID,2,VALID,0.644141,
2009-04-08, 02:57:04,VALID,998.824,VALID,0,VALID,93.6612,VALID,0,VALID,22.5323,VALID,1,VALID,0.630469,
2009-04-08, 02:58:04,VALID,998.8,VALID,0,VALID,93.4781,VALID,0,VALID,22.4933,VALID,1,VALID,0.271875,
2009-04-08, 02:59:04,VALID,998.791,VALID,0,VALID,93.3942,VALID,0,VALID,22.4331,VALID,1,VALID,0.262109,
2009-04-08, 03:00:04,VALID,998.832,VALID,0,VALID,93.5544,VALID,0,VALID,22.4543,VALID,1,VALID,0.236328,
2009-04-08, 03:01:04,VALID,998.813,VALID,0,VALID,93.646,VALID,0,VALID,22.4348,VALID,1,VALID,0,
2009-04-08, 03:02:04,VALID,998.821,VALID,0,VALID,93.6612,VALID,0,VALID,22.4348,VALID,1,VALID,0,
2009-04-08, 03:03:04,VALID,998.818,VALID,0,VALID,93.6994,VALID,0,VALID,22.4153,VALID,1,VALID,0,
2009-04-08, 03:04:04,VALID,998.848,VALID,0,VALID,93.7833,VALID,0,VALID,22.3958,VALID,1,VALID,0,
2009-04-08, 03:05:04,VALID,998.837,VALID,0,VALID,93.9206,VALID,0,VALID,22.3958,VALID,1,VALID,0,
2009-04-08, 03:06:04,VALID,998.839,VALID,0,VALID,93.9206,VALID,0,VALID,22.3958,VALID,1,VALID,0.279297,
2009-04-08, 03:07:04,VALID,998.824,VALID,0,VALID,93.9817,VALID,0,VALID,22.3958,VALID,1,VALID,0.283594,
2009-04-08, 03:08:04,VALID,998.857,VALID,0,VALID,93.9969,VALID,0,VALID,22.4153,VALID,1,VALID,0.242969,
2009-04-08, 03:09:04,VALID,998.857,VALID,0,VALID,93.9969,VALID,0,VALID,22.4153,VALID,1,VALID,0.123828,
2009-04-08, 03:10:04,VALID,998.851,VALID,0,VALID,93.974,VALID,0,VALID,22.3958,VALID,1,VALID,0,
2009-04-08, 03:11:04,VALID,998.876,VALID,0,VALID,94.0122,VALID,0,VALID,22.3975,VALID,1,VALID,0,
2009-04-08, 03:12:04,VALID,998.898,VALID,0,VALID,94.1343,VALID,0,VALID,22.3958,VALID,1,VALID,0.226563,
2009-04-08, 03:13:04,VALID,998.892,VALID,0,VALID,94.1343,VALID,0,VALID,22.4153,VALID,1,VALID,0.230859,
2009-04-08, 03:14:04,VALID,998.911,VALID,0,VALID,94.264,VALID,0,VALID,22.4348,VALID,1,VALID,0.555469,
2009-04-08, 03:15:04,VALID,998.895,VALID,0,VALID,94.3937,VALID,0,VALID,22.4543,VALID,1,VALID,0.584766,
2009-04-08, 03:16:04,VALID,998.89,VALID,0,VALID,94.4242,VALID,0,VALID,22.5128,VALID,159,VALID,0.622656,
2009-04-08, 03:17:04,VALID,998.889,VALID,0,VALID,94.386,VALID,0,VALID,22.5323,VALID,158,VALID,0.151562,
2009-04-08, 03:18:04,VALID,998.887,VALID,0,VALID,94.3097,VALID,0,VALID,22.5519,VALID,158,VALID,0.167578,
2009-04-08, 03:19:04,VALID,998.891,VALID,0,VALID,94.2563,VALID,0,VALID,22.5714,VALID,158,VALID,0.205859,
2009-04-08, 03:20:04,VALID,998.917,VALID,0,VALID,94.1724,VALID,0,VALID,22.5909,VALID,158,VALID,0.392969,
2009-04-08, 03:21:04,VALID,998.894,VALID,0,VALID,94.1037,VALID,0,VALID,22.6104,VALID,158,VALID,0.702734,
2009-04-08, 03:22:04,VALID,998.937,VALID,0,VALID,94.0122,VALID,0,VALID,22.6282,VALID,157,VALID,0.780078,
2009-04-08, 03:23:04,VALID,998.938,VALID,0,VALID,93.8291,VALID,0,VALID,22.6477,VALID,149,VALID,0.806641,
2009-04-08, 03:24:04,VALID,998.937,VALID,0,VALID,93.6231,VALID,0,VALID,22.6867,VALID,140,VALID,1.32539,
2009-04-08, 03:25:04,VALID,998.953,VALID,0,VALID,93.4781,VALID,0,VALID,22.7469,VALID,149,VALID,1.24922,
2009-04-08, 03:26:04,VALID,998.898,VALID,0,VALID,93.3179,VALID,0,VALID,22.7647,VALID,149,VALID,1.6,
2009-04-08, 03:27:04,VALID,998.885,VALID,0,VALID,92.9669,VALID,0,VALID,22.8232,VALID,149,VALID,1.47344,
2009-04-08, 03:28:04,VALID,998.911,VALID,0,VALID,92.5702,VALID,0,VALID,22.8835,VALID,146,VALID,1.6543,
2009-04-08, 03:29:04,VALID,998.919,VALID,0,VALID,92.1582,VALID,0,VALID,22.942,VALID,144,VALID,1.52852,
2009-04-08, 03:30:04,VALID,998.882,VALID,0,VALID,91.8759,VALID,0,VALID,23.0006,VALID,149,VALID,1.43242,
2009-04-08, 03:31:04,VALID,998.859,VALID,0,VALID,91.6775,VALID,0,VALID,23.0396,VALID,156,VALID,1.18164,
2009-04-08, 03:32:04,VALID,998.837,VALID,0,VALID,91.4944,VALID,0,VALID,23.0786,VALID,165,VALID,1.06602,
2009-04-08, 03:33:04,VALID,998.835,VALID,0,VALID,91.3189,VALID,0,VALID,23.0769,VALID,162,VALID,1.11211,
2009-04-08, 03:34:04,VALID,998.798,VALID,0,VALID,91.1968,VALID,0,VALID,23.0769,VALID,168,VALID,0.960938,
2009-04-08, 03:35:04,VALID,998.772,VALID,0,VALID,91.0748,VALID,0,VALID,23.1159,VALID,175,VALID,0.978125,
2009-04-08, 03:36:04,VALID,998.793,VALID,0,VALID,90.9069,VALID,0,VALID,23.1762,VALID,172,VALID,1.13359,
2009-04-08, 03:37:04,VALID,998.782,VALID,0,VALID,90.8383,VALID,0,VALID,23.1762,VALID,170,VALID,0.617969,
2009-04-08, 03:38:04,VALID,998.779,VALID,0,VALID,90.7772,VALID,0,VALID,23.1957,VALID,168,VALID,0.578906,
2009-04-08, 03:39:04,VALID,998.805,VALID,0,VALID,90.6857,VALID,0,VALID,23.2152,VALID,174,VALID,0.00195313,
2009-04-08, 03:40:04,VALID,998.801,VALID,0,VALID,90.7314,VALID,0,VALID,23.1957,VALID,174,VALID,0.429297,
2009-04-08, 03:41:04,VALID,998.83,VALID,0,VALID,90.7467,VALID,0,VALID,23.1744,VALID,323,VALID,0.614844,
2009-04-08, 03:42:04,VALID,998.828,VALID,0,VALID,91.1434,VALID,0,VALID,23.1957,VALID,324,VALID,0.970703,
2009-04-08, 03:43:04,VALID,998.845,VALID,0,VALID,91.4257,VALID,0,VALID,23.1762,VALID,326,VALID,0.805859,
2009-04-08, 03:44:04,VALID,998.824,VALID,0,VALID,91.4639,VALID,0,VALID,23.0964,VALID,326,VALID,0.465234,
2009-04-08, 03:45:04,VALID,998.811,VALID,0,VALID,91.7309,VALID,0,VALID,23.0964,VALID,326,VALID,0.293359,
2009-04-08, 03:46:04,VALID,998.787,VALID,0,VALID,91.8072,VALID,0,VALID,23.0786,VALID,326,VALID,0.400391,